"Sample Date","Sample Time","Sample Value","Units","Flow Rate","Sample Interval","Number Channels","Micron Size 0","Counts/Channel 0","Micron Size 1","Counts/Channel 1","Micron Size 2","Counts/Channel 2","Micron Size 3","Counts/Channel 3","Micron Size 4","Counts/Channel 4","Micron Size 5","Counts/Channel 5","Micron Size 6","Counts/Channel 6","Micron Size 7","Counts/Channel 7","Micron Size 8","Counts/Channel 8","Micron Size 9","Counts/Channel 9","Micron Size 10","Counts/Channel 10","Micron Size 11","Counts/Channel 11","Micron Size 12","Counts/Channel 12","Micron Size 13","Counts/Channel 13","Micron Size 14","Counts/Channel 14","Micron Size 15","Counts/Channel 15","Micron Size 16","Counts/Channel 16","Micron Size 17","Counts/Channel 17","Micron Size 18","Counts/Channel 18","Micron Size 19","Counts/Channel 19","Micron Size 20","Counts/Channel 20","Micron Size 21","Counts/Channel 21","Micron Size 22","Counts/Channel 22","Micron Size 23","Counts/Channel 23","Micron Size 24","Counts/Channel 24","Micron Size 25","Counts/Channel 25","Micron Size 26","Counts/Channel 26","Micron Size 27","Counts/Channel 27","Micron Size 28","Counts/Channel 28","Micron Size 29","Counts/Channel 29","Micron Size 30","Counts/Channel 30","Micron Size 31","Counts/Channel 31"
"03/12/08","16:00:02",354725.000,"cc",28331.686,6.00,6,0.100,268958.000,0.200,78622.000,0.300,5475.000,0.500,1241.000,1.000,429.000,5.000,0
"03/12/08","16:00:08",354452.000,"cc",28262.547,6.00,6,0.100,282380.000,0.200,65847.000,0.300,4573.000,0.500,1170.000,1.000,482.000,5.000,0
"03/12/08","16:00:14",406012.000,"cc",28278.998,6.00,6,0.100,321724.000,0.200,77392.000,0.300,5362.000,0.500,1148.000,1.000,386.000,5.000,0
"03/12/08","16:00:20",362624.000,"cc",28319.727,6.00,6,0.100,259034.000,0.200,95082.000,0.300,6885.000,0.500,1196.000,1.000,426.000,5.000,1.000
"03/12/08","16:00:26",362152.000,"cc",28410.971,6.00,6,0.100,287045.000,0.200,68836.000,0.300,4793.000,0.500,1044.000,1.000,434.000,5.000,0
"03/12/08","16:00:32",409879.000,"cc",28258.363,6.00,6,0.100,297488.000,0.200,103192.000,0.300,7546.000,0.500,1216.000,1.000,437.000,5.000,0
"03/12/08","16:00:38",427916.000,"cc",28291.930,6.00,6,0.100,336596.000,0.200,83377.000,0.300,6155.000,0.500,1273.000,1.000,515.000,5.000,0
"03/12/08","16:00:44",369735.000,"cc",28350.117,6.00,6,0.100,296645.000,0.200,66859.000,0.300,4691.000,0.500,1102.000,1.000,438.000,5.000,0
"03/12/08","16:00:50",393722.000,"cc",28308.074,6.00,6,0.100,306647.000,0.200,79832.000,0.300,5583.000,0.500,1221.000,1.000,439.000,5.000,0
"03/12/08","16:00:56",375375.000,"cc",28335.479,6.00,6,0.100,278550.000,0.200,88997.000,0.300,6143.000,0.500,1223.000,1.000,462.000,5.000,0
"03/12/08","16:01:02",394841.000,"cc",28286.227,6.00,6,0.100,306600.000,0.200,80358.000,0.300,6041.000,0.500,1351.000,1.000,491.000,5.000,0
"03/12/08","16:01:08",365644.000,"cc",28343.822,6.00,6,0.100,284751.000,0.200,73909.000,0.300,5361.000,0.500,1169.000,1.000,454.000,5.000,0
"03/12/08","16:01:14",372361.000,"cc",28358.500,6.00,6,0.100,287328.000,0.200,77707.000,0.300,5675.000,0.500,1176.000,1.000,475.000,5.000,0
"03/12/08","16:01:20",379050.000,"cc",28306.803,6.00,6,0.100,292174.000,0.200,79380.000,0.300,5818.000,0.500,1247.000,1.000,431.000,5.000,0
"03/12/08","16:01:26",446659.000,"cc",28282.066,6.00,6,0.100,341410.000,0.200,96519.000,0.300,7049.000,0.500,1214.000,1.000,467.000,5.000,0
"03/12/08","16:01:32",388743.000,"cc",28292.850,6.00,6,0.100,284043.000,0.200,96307.000,0.300,6742.000,0.500,1240.000,1.000,411.000,5.000,0
"03/12/08","16:01:38",358661.000,"cc",28322.127,6.00,6,0.100,273660.000,0.200,78091.000,0.300,5290.000,0.500,1161.000,1.000,459.000,5.000,0
"03/12/08","16:01:44",379374.000,"cc",28288.807,6.00,6,0.100,304587.000,0.200,68198.000,0.300,5009.000,0.500,1148.000,1.000,432.000,5.000,0
"03/12/08","16:01:50",312413.000,"cc",28303.842,6.00,6,0.100,253442.000,0.200,52845.000,0.300,4283.000,0.500,1293.000,1.000,549.000,5.000,1.000
"03/12/08","16:01:56",247381.000,"cc",28351.635,6.00,6,0.100,202684.000,0.200,39248.000,0.300,3513.000,0.500,1424.000,1.000,512.000,5.000,0
"03/12/08","16:02:02",261790.000,"cc",28317.350,6.00,6,0.100,217062.000,0.200,40044.000,0.300,3074.000,0.500,1117.000,1.000,492.000,5.000,1.000
"03/12/08","16:02:08",286570.000,"cc",28288.320,6.00,6,0.100,242891.000,0.200,39134.000,0.300,2926.000,0.500,1141.000,1.000,478.000,5.000,0
"03/12/08","16:02:14",228593.000,"cc",28289.977,6.00,6,0.100,197169.000,0.200,27462.000,0.300,2348.000,0.500,1157.000,1.000,457.000,5.000,0
"03/12/08","16:02:20",127744.000,"cc",28356.356,6.00,6,0.100,111185.000,0.200,13395.000,0.300,1572.000,0.500,1117.000,1.000,475.000,5.000,0
"03/12/08","16:02:26",169203.000,"cc",28352.908,6.00,6,0.100,148205.000,0.200,17742.000,0.300,1688.000,0.500,1095.000,1.000,473.000,5.000,0
"03/12/08","16:02:32",144641.000,"cc",28282.164,6.00,6,0.100,126305.000,0.200,14863.000,0.300,1717.000,0.500,1236.000,1.000,519.000,5.000,1.000
"03/12/08","16:02:38",159416.000,"cc",28345.869,6.00,6,0.100,140842.000,0.200,15255.000,0.300,1614.000,0.500,1165.000,1.000,540.000,5.000,0
"03/12/08","16:02:44",108031.000,"cc",28325.150,6.00,6,0.100,93289.000,0.200,10589.000,0.300,1844.000,0.500,1591.000,1.000,718.000,5.000,0
"03/12/08","16:02:50",96237.000,"cc",28238.816,6.00,6,0.100,83639.000,0.200,9164.000,0.300,1483.000,0.500,1322.000,1.000,629.000,5.000,0
"03/12/08","16:02:56",94445.000,"cc",28341.006,6.00,6,0.100,82133.000,0.200,8855.000,0.300,1449.000,0.500,1395.000,1.000,613.000,5.000,0
"03/12/08","16:03:02",111022.000,"cc",28322.813,6.00,6,0.100,96628.000,0.200,10614.000,0.300,1624.000,0.500,1440.000,1.000,716.000,5.000,0
"03/12/08","16:03:08",191322.000,"cc",28329.932,6.00,6,0.100,166230.000,0.200,20399.000,0.300,2310.000,0.500,1665.000,1.000,718.000,5.000,0
"03/12/08","16:03:14",197425.000,"cc",28234.315,6.00,6,0.100,172199.000,0.200,20873.000,0.300,2158.000,0.500,1564.000,1.000,631.000,5.000,0
"03/12/08","16:03:20",142361.000,"cc",28242.607,6.00,6,0.100,123808.000,0.200,14639.000,0.300,1886.000,0.500,1392.000,1.000,636.000,5.000,0
"03/12/08","16:03:26",158618.000,"cc",28363.877,6.00,6,0.100,139032.000,0.200,15961.000,0.300,1876.000,0.500,1217.000,1.000,532.000,5.000,0
"03/12/08","16:03:32",145390.000,"cc",28299.361,6.00,6,0.100,127644.000,0.200,14351.000,0.300,1652.000,0.500,1210.000,1.000,533.000,5.000,0
"03/12/08","16:03:38",171502.000,"cc",28338.051,6.00,6,0.100,150897.000,0.200,17068.000,0.300,1793.000,0.500,1202.000,1.000,541.000,5.000,1.000
"03/12/08","16:03:44",181182.000,"cc",28328.305,6.00,6,0.100,159625.000,0.200,17954.000,0.300,1806.000,0.500,1260.000,1.000,535.000,5.000,2.000
"03/12/08","16:03:50",110691.000,"cc",28366.352,6.00,6,0.100,98499.000,0.200,9486.000,0.300,1180.000,0.500,1081.000,1.000,445.000,5.000,0
"03/12/08","16:03:56",158572.000,"cc",28287.119,6.00,6,0.100,141173.000,0.200,14259.000,0.300,1538.000,0.500,1150.000,1.000,452.000,5.000,0
"03/12/08","16:04:02",125330.000,"cc",28339.432,6.00,6,0.100,112354.000,0.200,10231.000,0.300,1269.000,0.500,1033.000,1.000,443.000,5.000,0
"03/12/08","16:04:08",125791.000,"cc",28320.506,6.00,6,0.100,112786.000,0.200,10341.000,0.300,1136.000,0.500,1075.000,1.000,453.000,5.000,0
"03/12/08","16:04:14",156247.000,"cc",28338.627,6.00,6,0.100,140056.000,0.200,13228.000,0.300,1377.000,0.500,1117.000,1.000,469.000,5.000,0
"03/12/08","16:04:20",184938.000,"cc",28297.553,6.00,6,0.100,165834.000,0.200,16000.000,0.300,1507.000,0.500,1122.000,1.000,475.000,5.000,0
"03/12/08","16:04:26",164564.000,"cc",28317.656,6.00,6,0.100,148129.000,0.200,13461.000,0.300,1434.000,0.500,1059.000,1.000,481.000,5.000,0
"03/12/08","16:04:32",157650.000,"cc",28272.205,6.00,6,0.100,141834.000,0.200,12945.000,0.300,1372.000,0.500,1054.000,1.000,445.000,5.000,0
"03/12/08","16:04:38",112732.000,"cc",28356.084,6.00,6,0.100,101657.000,0.200,8606.000,0.300,1101.000,0.500,952.000,1.000,416.000,5.000,0
"03/12/08","16:04:44",120270.000,"cc",28270.258,6.00,6,0.100,108159.000,0.200,9523.000,0.300,1135.000,0.500,1050.000,1.000,403.000,5.000,0
"03/12/08","16:04:50",91263.000,"cc",28296.031,6.00,6,0.100,81799.000,0.200,6869.000,0.300,1060.000,0.500,1023.000,1.000,512.000,5.000,0
"03/12/08","16:04:56",105816.000,"cc",28352.598,6.00,6,0.100,95217.000,0.200,7958.000,0.300,1131.000,0.500,1060.000,1.000,450.000,5.000,0
"03/12/08","16:05:02",78542.000,"cc",28332.291,6.00,6,0.100,70738.000,0.200,5417.000,0.300,972.000,0.500,991.000,1.000,424.000,5.000,0
"03/12/08","16:05:08",92709.000,"cc",28283.594,6.00,6,0.100,83809.000,0.200,6700.000,0.300,877.000,0.500,930.000,1.000,393.000,5.000,0
"03/12/08","16:05:14",84791.000,"cc",28303.705,6.00,6,0.100,76581.000,0.200,6012.000,0.300,908.000,0.500,891.000,1.000,399.000,5.000,0
"03/12/08","16:05:20",112406.000,"cc",28336.412,6.00,6,0.100,101018.000,0.200,8900.000,0.300,1120.000,0.500,955.000,1.000,413.000,5.000,0
"03/12/08","16:05:26",93696.000,"cc",28326.090,6.00,6,0.100,84208.000,0.200,7263.000,0.300,993.000,0.500,882.000,1.000,350.000,5.000,0
"03/12/08","16:05:32",91658.000,"cc",28334.203,6.00,6,0.100,82509.000,0.200,6892.000,0.300,980.000,0.500,924.000,1.000,353.000,5.000,0
"03/12/08","16:05:38",101150.000,"cc",28294.170,6.00,6,0.100,90980.000,0.200,7676.000,0.300,1062.000,0.500,1018.000,1.000,414.000,5.000,0
"03/12/08","16:05:44",87603.000,"cc",28361.598,6.00,6,0.100,78801.000,0.200,6548.000,0.300,1000.000,0.500,878.000,1.000,376.000,5.000,0
"03/12/08","16:05:50",133452.000,"cc",28339.098,6.00,6,0.100,119353.000,0.200,11513.000,0.300,1240.000,0.500,926.000,1.000,420.000,5.000,0
"03/12/08","16:05:56",156987.000,"cc",28309.594,6.00,6,0.100,140794.000,0.200,13559.000,0.300,1301.000,0.500,931.000,1.000,402.000,5.000,0
"03/12/08","16:06:02",217914.000,"cc",28308.805,6.00,6,0.100,194766.000,0.200,20134.000,0.300,1609.000,0.500,970.000,1.000,435.000,5.000,0
"03/12/08","16:06:08",284760.000,"cc",28312.080,6.00,6,0.100,252518.000,0.200,28517.000,0.300,2140.000,0.500,1113.000,1.000,472.000,5.000,0
"03/12/08","16:06:14",256844.000,"cc",28316.002,6.00,6,0.100,227676.000,0.200,25433.000,0.300,2064.000,0.500,1195.000,1.000,476.000,5.000,0
"03/12/08","16:06:20",229686.000,"cc",28276.455,6.00,6,0.100,203193.000,0.200,22764.000,0.300,1998.000,0.500,1184.000,1.000,547.000,5.000,0
"03/12/08","16:06:26",225636.000,"cc",28327.965,6.00,6,0.100,200112.000,0.200,21947.000,0.300,1998.000,0.500,1129.000,1.000,450.000,5.000,0
"03/12/08","16:06:32",243007.000,"cc",28332.201,6.00,6,0.100,216385.000,0.200,23119.000,0.300,1875.000,0.500,1157.000,1.000,471.000,5.000,0
"03/12/08","16:06:38",250539.000,"cc",28335.639,6.00,6,0.100,223658.000,0.200,23553.000,0.300,1875.000,0.500,1016.000,1.000,437.000,5.000,0
"03/12/08","16:06:44",246848.000,"cc",28331.934,6.00,6,0.100,219686.000,0.200,23515.000,0.300,1970.000,0.500,1150.000,1.000,526.000,5.000,1.000
"03/12/08","16:06:50",240755.000,"cc",28319.078,6.00,6,0.100,214013.000,0.200,22790.000,0.300,2084.000,0.500,1304.000,1.000,564.000,5.000,0
"03/12/08","16:06:56",275294.000,"cc",28301.832,6.00,6,0.100,245638.000,0.200,25624.000,0.300,2157.000,0.500,1312.000,1.000,562.000,5.000,1.000
"03/12/08","16:07:02",218087.000,"cc",28338.543,6.00,6,0.100,193988.000,0.200,20162.000,0.300,1975.000,0.500,1393.000,1.000,569.000,5.000,0
"03/12/08","16:07:08",206033.000,"cc",28288.350,6.00,6,0.100,180938.000,0.200,20461.000,0.300,2296.000,0.500,1659.000,1.000,679.000,5.000,0
"03/12/08","16:07:14",396429.000,"cc",28326.924,6.00,6,0.100,344211.000,0.200,46266.000,0.300,3608.000,0.500,1634.000,1.000,710.000,5.000,0
"03/12/08","16:07:20",256722.000,"cc",28314.852,6.00,6,0.100,225187.000,0.200,26407.000,0.300,2661.000,0.500,1706.000,1.000,760.000,5.000,1.000
"03/12/08","16:07:26",196511.000,"cc",28302.264,6.00,6,0.100,171418.000,0.200,20616.000,0.300,2296.000,0.500,1526.000,1.000,655.000,5.000,0
"03/12/08","16:07:32",183195.000,"cc",28333.822,6.00,6,0.100,161656.000,0.200,17536.000,0.300,1939.000,0.500,1463.000,1.000,601.000,5.000,0
"03/12/08","16:07:38",137979.000,"cc",28329.449,6.00,6,0.100,121043.000,0.200,12991.000,0.300,1779.000,0.500,1505.000,1.000,661.000,5.000,0
"03/12/08","16:07:44",187362.000,"cc",28284.623,6.00,6,0.100,165451.000,0.200,18244.000,0.300,1895.000,0.500,1214.000,1.000,558.000,5.000,0
"03/12/08","16:07:50",133217.000,"cc",28328.125,6.00,6,0.100,117782.000,0.200,12442.000,0.300,1461.000,0.500,1056.000,1.000,476.000,5.000,0
"03/12/08","16:07:56",140932.000,"cc",28327.451,6.00,6,0.100,126456.000,0.200,11314.000,0.300,1432.000,0.500,1221.000,1.000,509.000,5.000,0
"03/12/08","16:08:02",193246.000,"cc",28294.793,6.00,6,0.100,171657.000,0.200,18107.000,0.300,1863.000,0.500,1159.000,1.000,460.000,5.000,0
"03/12/08","16:08:08",257733.000,"cc",28303.250,6.00,6,0.100,228154.000,0.200,25565.000,0.300,2303.000,0.500,1217.000,1.000,494.000,5.000,0
"03/12/08","16:08:14",153151.000,"cc",28328.359,6.00,6,0.100,136202.000,0.200,13241.000,0.300,1747.000,0.500,1393.000,1.000,568.000,5.000,0
"03/12/08","16:08:20",177689.000,"cc",28348.141,6.00,6,0.100,156510.000,0.200,17418.000,0.300,1926.000,0.500,1264.000,1.000,571.000,5.000,0
"03/12/08","16:08:26",249737.000,"cc",28327.080,6.00,6,0.100,222010.000,0.200,23944.000,0.300,2085.000,0.500,1180.000,1.000,518.000,5.000,0
"03/12/08","16:08:32",248870.000,"cc",28315.834,6.00,6,0.100,219921.000,0.200,24773.000,0.300,2335.000,0.500,1320.000,1.000,521.000,5.000,0
"03/12/08","16:08:38",253939.000,"cc",28305.338,6.00,6,0.100,225866.000,0.200,24294.000,0.300,2154.000,0.500,1168.000,1.000,457.000,5.000,0
"03/12/08","16:08:44",209930.000,"cc",28325.340,6.00,6,0.100,186603.000,0.200,19866.000,0.300,1869.000,0.500,1144.000,1.000,447.000,5.000,1.000
"03/12/08","16:08:50",239375.000,"cc",28281.941,6.00,6,0.100,207713.000,0.200,27329.000,0.300,2615.000,0.500,1230.000,1.000,488.000,5.000,0
"03/12/08","16:08:56",184590.000,"cc",28299.809,6.00,6,0.100,162623.000,0.200,18413.000,0.300,1907.000,0.500,1147.000,1.000,500.000,5.000,0
"03/12/08","16:09:02",104620.000,"cc",28299.148,6.00,6,0.100,89474.000,0.200,11885.000,0.300,1646.000,0.500,1107.000,1.000,508.000,5.000,0
"03/12/08","16:09:08",211022.000,"cc",28332.596,6.00,6,0.100,185333.000,0.200,21577.000,0.300,2284.000,0.500,1292.000,1.000,536.000,5.000,0
"03/12/08","16:09:14",249848.000,"cc",28338.623,6.00,6,0.100,218870.000,0.200,26635.000,0.300,2513.000,0.500,1284.000,1.000,546.000,5.000,0
"03/12/08","16:09:20",267107.000,"cc",28325.805,6.00,6,0.100,234857.000,0.200,28167.000,0.300,2382.000,0.500,1190.000,1.000,511.000,5.000,0
"03/12/08","16:09:26",200658.000,"cc",28280.631,6.00,6,0.100,176088.000,0.200,20588.000,0.300,2201.000,0.500,1254.000,1.000,527.000,5.000,0
"03/12/08","16:09:32",306471.000,"cc",28313.438,6.00,6,0.100,271177.000,0.200,31316.000,0.300,2377.000,0.500,1139.000,1.000,462.000,5.000,0
"03/12/08","16:09:38",147183.000,"cc",28317.986,6.00,6,0.100,130728.000,0.200,13242.000,0.300,1589.000,0.500,1086.000,1.000,538.000,5.000,0
"03/12/08","16:09:44",182161.000,"cc",28333.334,6.00,6,0.100,162290.000,0.200,16864.000,0.300,1613.000,0.500,941.000,1.000,453.000,5.000,0
"03/12/08","16:09:50",142588.000,"cc",28309.029,6.00,6,0.100,126709.000,0.200,13030.000,0.300,1418.000,0.500,1007.000,1.000,424.000,5.000,0
"03/12/08","16:09:56",128790.000,"cc",28372.725,6.00,6,0.100,114221.000,0.200,11525.000,0.300,1428.000,0.500,1163.000,1.000,453.000,5.000,0
"03/12/08","16:10:02",117456.000,"cc",28261.020,6.00,6,0.100,103871.000,0.200,10497.000,0.300,1417.000,0.500,1177.000,1.000,494.000,5.000,0
"03/12/08","16:10:08",221158.000,"cc",28313.857,6.00,6,0.100,194250.000,0.200,23247.000,0.300,2055.000,0.500,1109.000,1.000,497.000,5.000,0
"03/12/08","16:10:14",242523.000,"cc",28321.746,6.00,6,0.100,210518.000,0.200,28008.000,0.300,2456.000,0.500,1095.000,1.000,446.000,5.000,0
"03/12/08","16:10:20",221161.000,"cc",28361.734,6.00,6,0.100,194556.000,0.200,23036.000,0.300,2004.000,0.500,1074.000,1.000,491.000,5.000,0
"03/12/08","16:10:26",225529.000,"cc",28302.938,6.00,6,0.100,198788.000,0.200,23307.000,0.300,2036.000,0.500,971.000,1.000,427.000,5.000,0
"03/12/08","16:10:32",123640.000,"cc",28289.000,6.00,6,0.100,107461.000,0.200,12897.000,0.300,1606.000,0.500,1112.000,1.000,564.000,5.000,0
"03/12/08","16:10:38",105427.000,"cc",28347.022,6.00,6,0.100,92341.000,0.200,9712.000,0.300,1540.000,0.500,1260.000,1.000,574.000,5.000,0
"03/12/08","16:10:44",191020.000,"cc",28268.838,6.00,6,0.100,169122.000,0.200,18478.000,0.300,1784.000,0.500,1151.000,1.000,485.000,5.000,0
"03/12/08","16:10:50",178952.000,"cc",28267.813,6.00,6,0.100,155969.000,0.200,19554.000,0.300,1876.000,0.500,1115.000,1.000,438.000,5.000,0
"03/12/08","16:10:56",196711.000,"cc",28328.008,6.00,6,0.100,173012.000,0.200,20356.000,0.300,1804.000,0.500,1086.000,1.000,453.000,5.000,0
"03/12/08","16:11:02",133636.000,"cc",28362.725,6.00,6,0.100,117311.000,0.200,12953.000,0.300,1622.000,0.500,1234.000,1.000,516.000,5.000,0
"03/12/08","16:11:08",142096.000,"cc",28320.820,6.00,6,0.100,124249.000,0.200,14468.000,0.300,1690.000,0.500,1172.000,1.000,517.000,5.000,0
"03/12/08","16:11:14",151422.000,"cc",28323.945,6.00,6,0.100,130970.000,0.200,16984.000,0.300,1820.000,0.500,1151.000,1.000,497.000,5.000,0
"03/12/08","16:11:20",157089.000,"cc",28350.029,6.00,6,0.100,136506.000,0.200,16969.000,0.300,1879.000,0.500,1222.000,1.000,513.000,5.000,0
"03/12/08","16:11:26",229296.000,"cc",28305.711,6.00,6,0.100,199017.000,0.200,26277.000,0.300,2327.000,0.500,1219.000,1.000,455.000,5.000,1.000
"03/12/08","16:11:32",231068.000,"cc",28310.283,6.00,6,0.100,200196.000,0.200,26879.000,0.300,2323.000,0.500,1190.000,1.000,479.000,5.000,1.000
"03/12/08","16:11:38",251203.000,"cc",28294.127,6.00,6,0.100,221496.000,0.200,26018.000,0.300,2155.000,0.500,1131.000,1.000,403.000,5.000,0
"03/12/08","16:11:44",224851.000,"cc",28310.205,6.00,6,0.100,200746.000,0.200,20978.000,0.300,1698.000,0.500,1011.000,1.000,418.000,5.000,0
"03/12/08","16:11:50",192281.000,"cc",28317.584,6.00,6,0.100,161782.000,0.200,27149.000,0.300,1924.000,0.500,1009.000,1.000,417.000,5.000,0
"03/12/08","16:11:56",203153.000,"cc",28307.113,6.00,6,0.100,179688.000,0.200,20095.000,0.300,1851.000,0.500,1091.000,1.000,428.000,5.000,0
"03/12/08","16:12:02",103935.000,"cc",28319.744,6.00,6,0.100,91824.000,0.200,9086.000,0.300,1339.000,0.500,1173.000,1.000,513.000,5.000,0
"03/12/08","16:12:08",109127.000,"cc",28324.090,6.00,6,0.100,97638.000,0.200,8719.000,0.300,1189.000,0.500,1105.000,1.000,476.000,5.000,0
"03/12/08","16:12:14",142371.000,"cc",28310.760,6.00,6,0.100,126780.000,0.200,12591.000,0.300,1442.000,0.500,1120.000,1.000,438.000,5.000,0
"03/12/08","16:12:20",259526.000,"cc",28332.738,6.00,6,0.100,219442.000,0.200,36180.000,0.300,2483.000,0.500,1001.000,1.000,420.000,5.000,0
"03/12/08","16:12:26",159643.000,"cc",28333.027,6.00,6,0.100,138558.000,0.200,17236.000,0.300,2038.000,0.500,1297.000,1.000,513.000,5.000,1.000
"03/12/08","16:12:32",220971.000,"cc",28299.863,6.00,6,0.100,193203.000,0.200,23889.000,0.300,2159.000,0.500,1238.000,1.000,482.000,5.000,0
"03/12/08","16:12:38",151822.000,"cc",28296.811,6.00,6,0.100,133149.000,0.200,15105.000,0.300,1847.000,0.500,1242.000,1.000,479.000,5.000,0
"03/12/08","16:12:44",245005.000,"cc",28365.799,6.00,6,0.100,214553.000,0.200,26591.000,0.300,2196.000,0.500,1184.000,1.000,481.000,5.000,0
"03/12/08","16:12:50",176358.000,"cc",28282.498,6.00,6,0.100,154961.000,0.200,17709.000,0.300,1823.000,0.500,1355.000,1.000,510.000,5.000,0
"03/12/08","16:12:56",133092.000,"cc",28315.555,6.00,6,0.100,114942.000,0.200,14508.000,0.300,1824.000,0.500,1253.000,1.000,565.000,5.000,0
"03/12/08","16:13:02",140458.000,"cc",28310.660,6.00,6,0.100,123241.000,0.200,13816.000,0.300,1749.000,0.500,1178.000,1.000,474.000,5.000,0
"03/12/08","16:13:08",179385.000,"cc",28323.553,6.00,6,0.100,157275.000,0.200,18473.000,0.300,1947.000,0.500,1209.000,1.000,481.000,5.000,0
"03/12/08","16:13:14",294658.000,"cc",28309.578,6.00,6,0.100,256514.000,0.200,34049.000,0.300,2619.000,0.500,1069.000,1.000,407.000,5.000,0
"03/12/08","16:13:20",266363.000,"cc",28314.732,6.00,6,0.100,231099.000,0.200,30991.000,0.300,2576.000,0.500,1177.000,1.000,520.000,5.000,0
"03/12/08","16:13:26",202784.000,"cc",28316.947,6.00,6,0.100,175694.000,0.200,23322.000,0.300,2134.000,0.500,1171.000,1.000,463.000,5.000,0
"03/12/08","16:13:32",182374.000,"cc",28314.764,6.00,6,0.100,157877.000,0.200,20666.000,0.300,2078.000,0.500,1265.000,1.000,488.000,5.000,0
"03/12/08","16:13:38",129452.000,"cc",28333.467,6.00,6,0.100,111820.000,0.200,13965.000,0.300,1826.000,0.500,1289.000,1.000,552.000,5.000,0
"03/12/08","16:13:44",146740.000,"cc",28284.645,6.00,6,0.100,128482.000,0.200,15006.000,0.300,1683.000,0.500,1097.000,1.000,472.000,5.000,0
"03/12/08","16:13:50",134597.000,"cc",28300.055,6.00,6,0.100,114882.000,0.200,16422.000,0.300,1820.000,0.500,1022.000,1.000,451.000,5.000,0
"03/12/08","16:13:56",158797.000,"cc",28293.984,6.00,6,0.100,135532.000,0.200,19669.000,0.300,2018.000,0.500,1098.000,1.000,480.000,5.000,0
"03/12/08","16:14:02",195927.000,"cc",28288.688,6.00,6,0.100,168440.000,0.200,23676.000,0.300,2197.000,0.500,1109.000,1.000,505.000,5.000,0
"03/12/08","16:14:08",199827.000,"cc",28405.572,6.00,6,0.100,170534.000,0.200,25316.000,0.300,2384.000,0.500,1149.000,1.000,443.000,5.000,1.000
"03/12/08","16:14:14",148582.000,"cc",28247.842,6.00,6,0.100,125946.000,0.200,18933.000,0.300,2013.000,0.500,1187.000,1.000,503.000,5.000,0
"03/12/08","16:14:20",225398.000,"cc",28248.250,6.00,6,0.100,195853.000,0.200,25901.000,0.300,2228.000,0.500,1024.000,1.000,392.000,5.000,0
"03/12/08","16:14:26",193295.000,"cc",28379.479,6.00,6,0.100,168818.000,0.200,20915.000,0.300,2061.000,0.500,1075.000,1.000,426.000,5.000,0
"03/12/08","16:14:32",232510.000,"cc",28314.703,6.00,6,0.100,199850.000,0.200,28825.000,0.300,2411.000,0.500,983.000,1.000,441.000,5.000,0
"03/12/08","16:14:38",167378.000,"cc",28327.680,6.00,6,0.100,142914.000,0.200,21002.000,0.300,2016.000,0.500,1020.000,1.000,426.000,5.000,0
"03/12/08","16:14:44",200456.000,"cc",28368.418,6.00,6,0.100,174759.000,0.200,22404.000,0.300,1927.000,0.500,981.000,1.000,385.000,5.000,0
"03/12/08","16:14:50",248104.000,"cc",28412.379,6.00,6,0.100,215098.000,0.200,28696.000,0.300,2644.000,0.500,1169.000,1.000,497.000,5.000,0
"03/12/08","16:14:56",187916.000,"cc",28256.785,6.00,6,0.100,163121.000,0.200,21314.000,0.300,1996.000,0.500,1045.000,1.000,440.000,5.000,0
"03/12/08","16:15:02",212552.000,"cc",28310.186,6.00,6,0.100,183478.000,0.200,25385.000,0.300,2242.000,0.500,1084.000,1.000,363.000,5.000,0
"03/12/08","16:15:08",215146.000,"cc",28285.162,6.00,6,0.100,184679.000,0.200,26654.000,0.300,2236.000,0.500,1114.000,1.000,463.000,5.000,0
"03/12/08","16:15:14",204949.000,"cc",28329.266,6.00,6,0.100,176173.000,0.200,24938.000,0.300,2170.000,0.500,1205.000,1.000,463.000,5.000,0
"03/12/08","16:15:20",123037.000,"cc",28305.182,6.00,6,0.100,105646.000,0.200,14320.000,0.300,1572.000,0.500,1039.000,1.000,460.000,5.000,0
"03/12/08","16:15:26",268929.000,"cc",28319.752,6.00,6,0.100,234921.000,0.200,30153.000,0.300,2341.000,0.500,1068.000,1.000,446.000,5.000,0
"03/12/08","16:15:32",217012.000,"cc",28313.828,6.00,6,0.100,190971.000,0.200,22181.000,0.300,2125.000,0.500,1241.000,1.000,494.000,5.000,0
"03/12/08","16:15:38",226983.000,"cc",28315.023,6.00,6,0.100,200406.000,0.200,22970.000,0.300,2037.000,0.500,1116.000,1.000,454.000,5.000,0
"03/12/08","16:15:44",202613.000,"cc",28286.522,6.00,6,0.100,179072.000,0.200,20245.000,0.300,1827.000,0.500,1038.000,1.000,431.000,5.000,0
"03/12/08","16:15:50",157729.000,"cc",28311.225,6.00,6,0.100,138072.000,0.200,16549.000,0.300,1670.000,0.500,1016.000,1.000,422.000,5.000,0
"03/12/08","16:15:56",264600.000,"cc",28349.695,6.00,6,0.100,233266.000,0.200,27712.000,0.300,2200.000,0.500,1007.000,1.000,415.000,5.000,0
"03/12/08","16:16:02",175447.000,"cc",28305.838,6.00,6,0.100,154474.000,0.200,17532.000,0.300,1800.000,0.500,1136.000,1.000,505.000,5.000,0